Terminal Aerodrome Forecast
Issued by NWS

Home | Current Version | Previous Version | Text Only | Print | Product List | Glossary On
Versions: 1 2 3 4 5 6 7 8 9 10 11 12 13 14 15 16 17 18 19 20 21 22 23 24 25 26 27 28 29 30 31 32 33 34 35 36 37 38 39 40 41 42 43 44 45 46 47 48 49 50
000
FTUS41 KCTP 030532
TAFUNV
TAF
KUNV 030532Z 0306/0406 32005KT P6SM SCT250
     FM031400 15008KT P6SM OVC100
     FM031900 16010G20KT 4SM -SN OVC025
     FM032300 17012G22KT 2SM -FZRAPL BR OVC015=

USA.gov is the U.S. government's official web portal to all federal, state and local government web resources and services.